SHT8B EGLL-EGPH

Flight info

Callsign SHT8B
Flight time 0h 54m
Altitude 32000
Route ULTIB T420 TNT UN57 POL UN601 RIBEL DCT INPIP
Aircraft A320/M-SDE3FGHIRWY/LB1

Departure

Time 2026-04-26 07:23
Airport London Heathrow Airport (EGLL)

Arrival

Time 2026-04-26 08:18
Airport Edinburgh Airport (EGPH)
Time Latitude Longitude Altitude Speed Heading
2026-04-26 06:42 51.47404 -0.48891 90 ft 0 kts 179°
2026-04-26 07:03 51.47408 -0.48891 86 ft 2 kts 179°
2026-04-26 07:03 51.47424 -0.48892 87 ft 2 kts 181°
2026-04-26 07:03 51.47440 -0.48892 86 ft 2 kts 178°
2026-04-26 07:03 51.47456 -0.48892 88 ft 2 kts 178°
2026-04-26 07:04 51.47473 -0.48892 86 ft 2 kts 178°
2026-04-26 07:04 51.47490 -0.48894 86 ft 2 kts 140°
2026-04-26 07:04 51.47494 -0.48898 86 ft 0 kts 96°
2026-04-26 07:08 51.47494 -0.48896 86 ft 1 kts 96°
2026-04-26 07:08 51.47491 -0.48867 88 ft 4 kts 101°
2026-04-26 07:08 51.47486 -0.48802 88 ft 8 kts 94°
2026-04-26 07:08 51.47486 -0.48731 89 ft 0 kts 88°
2026-04-26 07:11 51.47486 -0.48718 88 ft 3 kts 88°
2026-04-26 07:11 51.47487 -0.48667 87 ft 6 kts 89°
2026-04-26 07:11 51.47488 -0.48617 89 ft 0 kts 90°
2026-04-26 07:12 51.47488 -0.48612 89 ft 0 kts 90°
2026-04-26 07:14 51.47488 -0.48602 88 ft 3 kts 90°
2026-04-26 07:14 51.47488 -0.48575 87 ft 0 kts 90°
2026-04-26 07:16 51.47488 -0.48574 87 ft 1 kts 90°
2026-04-26 07:17 51.47488 -0.48571 87 ft 2 kts 90°
2026-04-26 07:17 51.47486 -0.48531 87 ft 5 kts 98°
2026-04-26 07:17 51.47451 -0.48475 87 ft 12 kts 167°
2026-04-26 07:17 51.47357 -0.48474 86 ft 13 kts 180°
2026-04-26 07:18 51.47259 -0.48473 86 ft 16 kts 179°
2026-04-26 07:18 51.47147 -0.48472 86 ft 17 kts 179°
2026-04-26 07:18 51.47028 -0.48471 88 ft 17 kts 179°
2026-04-26 07:18 51.46921 -0.48469 86 ft 16 kts 179°
2026-04-26 07:19 51.46798 -0.48468 86 ft 19 kts 180°
2026-04-26 07:19 51.46659 -0.48467 86 ft 19 kts 180°
2026-04-26 07:19 51.46601 -0.48467 86 ft 0 kts 179°
2026-04-26 07:20 51.46600 -0.48467 86 ft 1 kts 179°
2026-04-26 07:20 51.46582 -0.48467 86 ft 4 kts 179°
2026-04-26 07:21 51.46546 -0.48466 87 ft 7 kts 179°
2026-04-26 07:21 51.46490 -0.48456 88 ft 9 kts 152°
2026-04-26 07:21 51.46479 -0.48363 87 ft 0 kts 91°
2026-04-26 07:22 51.46479 -0.48354 87 ft 7 kts 91°
2026-04-26 07:22 51.46481 -0.47860 89 ft 81 kts 89°
2026-04-26 07:23 51.46486 -0.46624 90 ft 137 kts 89°
2026-04-26 07:23 51.46488 -0.44951 525 ft 147 kts 89°
2026-04-26 07:23 51.46502 -0.43248 974 ft 165 kts 88°
2026-04-26 07:23 51.46684 -0.41304 1322 ft 190 kts 66°
2026-04-26 07:24 51.47523 -0.39479 1734 ft 217 kts 52°
2026-04-26 07:24 51.48555 -0.37522 2218 ft 242 kts 52°
2026-04-26 07:24 51.49658 -0.35422 2971 ft 253 kts 52°
2026-04-26 07:24 51.50803 -0.33239 3996 ft 256 kts 51°
2026-04-26 07:25 51.51936 -0.31001 4993 ft 260 kts 58°
2026-04-26 07:25 51.52676 -0.28327 5792 ft 263 kts 71°
2026-04-26 07:25 51.53372 -0.25565 6613 ft 271 kts 59°
2026-04-26 07:25 51.54661 -0.23390 7427 ft 278 kts 32°
2026-04-26 07:26 51.56489 -0.22371 8278 ft 282 kts
2026-04-26 07:26 51.58449 -0.22764 9166 ft 285 kts 347°
2026-04-26 07:26 51.60388 -0.23416 10091 ft 289 kts 348°
2026-04-26 07:26 51.62305 -0.24409 10896 ft 292 kts 332°
2026-04-26 07:27 51.64138 -0.26058 11298 ft 313 kts 328°
2026-04-26 07:27 51.66077 -0.27900 11530 ft 335 kts 328°
2026-04-26 07:27 51.68117 -0.29871 12108 ft 344 kts 328°
2026-04-26 07:27 51.70180 -0.31876 12816 ft 349 kts 327°
2026-04-26 07:28 51.72249 -0.33889 13549 ft 352 kts 327°
2026-04-26 07:28 51.74362 -0.35943 14274 ft 355 kts 327°
2026-04-26 07:28 51.76496 -0.38014 14920 ft 359 kts 327°
2026-04-26 07:28 51.78625 -0.40075 15520 ft 362 kts 327°
2026-04-26 07:29 51.80807 -0.42185 16140 ft 366 kts 327°
2026-04-26 07:29 51.83004 -0.44310 16761 ft 369 kts 327°
2026-04-26 07:29 51.85222 -0.46458 17398 ft 372 kts 327°
2026-04-26 07:29 51.87432 -0.48602 18033 ft 376 kts 327°
2026-04-26 07:30 51.89692 -0.50802 18647 ft 379 kts 327°
2026-04-26 07:30 51.91970 -0.53024 19202 ft 383 kts 327°
2026-04-26 07:30 51.94259 -0.55262 19794 ft 385 kts 327°
2026-04-26 07:30 51.96561 -0.57513 20397 ft 387 kts 327°
2026-04-26 07:31 51.98856 -0.59753 20978 ft 390 kts 327°
2026-04-26 07:31 52.01185 -0.62024 21548 ft 392 kts 327°
2026-04-26 07:31 52.03531 -0.64318 22123 ft 394 kts 327°
2026-04-26 07:31 52.05892 -0.66635 22672 ft 396 kts 326°
2026-04-26 07:32 52.08225 -0.68931 23213 ft 398 kts 326°
2026-04-26 07:32 52.10600 -0.71270 23758 ft 400 kts 326°
2026-04-26 07:32 52.12183 -0.72833 24076 ft 402 kts 326°
2026-04-26 07:32 52.14578 -0.75196 24513 ft 404 kts 326°
2026-04-26 07:33 52.17782 -0.78352 25102 ft 406 kts 326°
2026-04-26 07:33 52.19420 -0.79968 25396 ft 408 kts 326°
2026-04-26 07:33 52.21826 -0.82344 25833 ft 409 kts 326°
2026-04-26 07:33 52.24269 -0.84766 26249 ft 411 kts 326°
2026-04-26 07:34 52.27530 -0.88003 26802 ft 414 kts 326°
2026-04-26 07:34 52.29197 -0.89660 27100 ft 415 kts 326°
2026-04-26 07:34 52.31645 -0.92095 27533 ft 417 kts 326°
2026-04-26 07:34 52.34129 -0.94569 27948 ft 419 kts 326°
2026-04-26 07:35 52.36625 -0.97063 28380 ft 421 kts 326°
2026-04-26 07:35 52.39139 -0.99573 28784 ft 423 kts 326°
2026-04-26 07:35 52.41631 -1.02064 29156 ft 426 kts 326°
2026-04-26 07:35 52.44168 -1.04602 29515 ft 428 kts 326°
2026-04-26 07:36 52.46723 -1.07161 29891 ft 431 kts 326°
2026-04-26 07:36 52.49285 -1.09734 30283 ft 433 kts 325°
2026-04-26 07:36 52.51860 -1.12327 30638 ft 435 kts 325°
2026-04-26 07:36 52.54407 -1.14894 31010 ft 435 kts 325°
2026-04-26 07:37 52.56989 -1.17492 31505 ft 433 kts 325°
2026-04-26 07:37 52.59563 -1.20083 32000 ft 431 kts 325°
2026-04-26 07:37 52.62125 -1.22670 32231 ft 431 kts 325°
2026-04-26 07:38 52.67148 -1.27759 32274 ft 423 kts 325°
2026-04-26 07:38 52.72159 -1.32852 32274 ft 422 kts 325°
2026-04-26 07:39 52.77123 -1.37917 32365 ft 421 kts 324°
2026-04-26 07:39 52.82119 -1.43025 32356 ft 421 kts 324°
2026-04-26 07:40 52.87073 -1.48093 32354 ft 421 kts 324°
2026-04-26 07:40 52.92064 -1.53223 32349 ft 421 kts 324°
2026-04-26 07:41 52.97012 -1.58324 32343 ft 422 kts 324°
2026-04-26 07:41 53.02004 -1.63489 32350 ft 422 kts 324°
2026-04-26 07:42 53.07153 -1.68108 32346 ft 428 kts 335°
2026-04-26 07:42 53.12745 -1.71537 32344 ft 428 kts 335°
2026-04-26 07:43 53.18332 -1.74987 32347 ft 428 kts 335°
2026-04-26 07:43 53.23899 -1.78458 32348 ft 428 kts 335°
2026-04-26 07:44 53.29500 -1.81950 32361 ft 429 kts 335°
2026-04-26 07:44 53.35055 -1.85425 32349 ft 429 kts 335°
2026-04-26 07:45 53.40642 -1.88938 32342 ft 429 kts 335°
2026-04-26 07:45 53.46243 -1.92465 32346 ft 429 kts 335°
2026-04-26 07:46 53.51798 -1.95962 32345 ft 429 kts 335°
2026-04-26 07:46 53.57396 -1.99514 32345 ft 429 kts 335°
2026-04-26 07:47 53.62952 -2.03044 32348 ft 429 kts 335°
2026-04-26 07:47 53.68546 -2.06601 32350 ft 429 kts 335°
2026-04-26 07:48 53.74142 -2.10171 32359 ft 429 kts 334°
2026-04-26 07:48 53.79668 -2.13823 32353 ft 429 kts 333°
2026-04-26 07:49 53.85206 -2.17656 32351 ft 429 kts 333°
2026-04-26 07:49 53.90692 -2.21456 32348 ft 429 kts 333°
2026-04-26 07:50 53.99004 -2.27171 32362 ft 429 kts 333°
2026-04-26 07:50 54.04535 -2.30980 32357 ft 429 kts 333°
2026-04-26 07:51 54.10042 -2.34776 32352 ft 429 kts 333°
2026-04-26 07:51 54.15577 -2.38598 32349 ft 429 kts 333°
2026-04-26 07:52 54.21110 -2.42451 32346 ft 429 kts 333°
2026-04-26 07:52 54.26612 -2.46291 32358 ft 429 kts 333°
2026-04-26 07:53 54.32136 -2.50152 32352 ft 428 kts 333°
2026-04-26 07:53 54.37655 -2.54021 32348 ft 428 kts 333°
2026-04-26 07:54 54.43149 -2.57892 32336 ft 428 kts 333°
2026-04-26 07:54 54.48660 -2.61785 32354 ft 428 kts 333°
2026-04-26 07:55 54.51416 -2.63733 32003 ft 426 kts 333°
2026-04-26 07:55 54.54125 -2.65649 31225 ft 427 kts 333°
2026-04-26 07:55 54.56877 -2.67601 30468 ft 428 kts 333°
2026-04-26 07:55 54.59622 -2.69550 30119 ft 426 kts 333°
2026-04-26 07:56 54.62370 -2.71507 29826 ft 427 kts 333°
2026-04-26 07:56 54.65119 -2.73465 29546 ft 426 kts 333°
2026-04-26 07:56 54.67858 -2.75411 29261 ft 425 kts 333°
2026-04-26 07:56 54.70586 -2.77349 28976 ft 423 kts 333°
2026-04-26 07:57 54.73307 -2.79293 28737 ft 422 kts 333°
2026-04-26 07:57 54.75984 -2.81213 28462 ft 421 kts 333°
2026-04-26 07:57 54.78687 -2.83155 28184 ft 419 kts 333°
2026-04-26 07:57 54.81363 -2.85077 27656 ft 414 kts 333°
2026-04-26 07:58 54.84014 -2.86982 27082 ft 410 kts 333°
2026-04-26 07:58 54.86640 -2.88873 26516 ft 406 kts 333°
2026-04-26 07:58 54.89243 -2.90751 25950 ft 404 kts 333°
2026-04-26 07:58 54.91805 -2.92606 25386 ft 405 kts 333°
2026-04-26 07:59 54.94405 -2.94492 24830 ft 403 kts 334°
2026-04-26 07:59 54.96993 -2.96371 24269 ft 401 kts 334°
2026-04-26 07:59 54.99568 -2.98241 23675 ft 400 kts 334°
2026-04-26 07:59 55.02130 -3.00098 23097 ft 398 kts 334°
2026-04-26 08:00 55.04682 -3.01944 22537 ft 395 kts 334°
2026-04-26 08:00 55.07183 -3.03757 22001 ft 393 kts 334°
2026-04-26 08:00 55.09694 -3.05586 21448 ft 390 kts 334°
2026-04-26 08:00 55.12193 -3.07416 20900 ft 387 kts 334°
2026-04-26 08:01 55.14668 -3.09231 20355 ft 385 kts 334°
2026-04-26 08:01 55.17149 -3.11050 19631 ft 387 kts 334°
2026-04-26 08:01 55.19598 -3.12846 19321 ft 378 kts 334°
2026-04-26 08:01 55.22005 -3.14611 19030 ft 368 kts 334°
2026-04-26 08:02 55.24298 -3.16291 18920 ft 355 kts 334°
2026-04-26 08:02 55.26546 -3.17938 18799 ft 343 kts 334°
2026-04-26 08:02 55.28733 -3.19425 18634 ft 335 kts 341°
2026-04-26 08:02 55.31017 -3.20115 18174 ft 333 kts 355°
2026-04-26 08:03 55.33329 -3.19916 17560 ft 332 kts
2026-04-26 08:03 55.35623 -3.19545 16976 ft 329 kts
2026-04-26 08:03 55.37863 -3.19190 16408 ft 326 kts
2026-04-26 08:03 55.40120 -3.18838 15850 ft 323 kts
2026-04-26 08:04 55.42350 -3.18492 15285 ft 319 kts
2026-04-26 08:04 55.44563 -3.18146 14667 ft 317 kts
2026-04-26 08:04 55.46748 -3.17797 14075 ft 314 kts
2026-04-26 08:04 55.48890 -3.17456 13440 ft 311 kts
2026-04-26 08:05 55.51039 -3.17118 12801 ft 307 kts
2026-04-26 08:05 55.53160 -3.16781 12165 ft 304 kts
2026-04-26 08:05 55.55264 -3.16448 11529 ft 301 kts
2026-04-26 08:05 55.57395 -3.16097 10481 ft 314 kts
2026-04-26 08:06 55.59496 -3.15751 10302 ft 296 kts
2026-04-26 08:06 55.61548 -3.15412 9921 ft 296 kts
2026-04-26 08:06 55.63590 -3.15080 9598 ft 294 kts
2026-04-26 08:06 55.65617 -3.14755 9262 ft 292 kts
2026-04-26 08:07 55.67638 -3.14435 8937 ft 290 kts
2026-04-26 08:07 55.69620 -3.14128 8632 ft 288 kts
2026-04-26 08:07 55.71613 -3.13823 8307 ft 287 kts
2026-04-26 08:07 55.73583 -3.13525 8143 ft 279 kts
2026-04-26 08:08 55.75489 -3.13238 8025 ft 270 kts
2026-04-26 08:08 55.77335 -3.12953 7847 ft 264 kts
2026-04-26 08:08 55.79099 -3.12113 7582 ft 264 kts 26°
2026-04-26 08:08 55.80634 -3.10322 7297 ft 264 kts 34°
2026-04-26 08:09 55.82114 -3.08477 7023 ft 263 kts 34°
2026-04-26 08:09 55.83609 -3.06608 6758 ft 261 kts 33°
2026-04-26 08:09 55.85199 -3.05073 6476 ft 259 kts 20°
2026-04-26 08:09 55.86913 -3.04208 6192 ft 255 kts
2026-04-26 08:10 55.88640 -3.03662 5891 ft 246 kts
2026-04-26 08:10 55.90283 -3.03138 5543 ft 241 kts
2026-04-26 08:10 55.91900 -3.02620 5354 ft 228 kts
2026-04-26 08:10 55.93434 -3.02124 5159 ft 221 kts
2026-04-26 08:11 55.94955 -3.01887 4922 ft 217 kts 356°
2026-04-26 08:11 55.96448 -3.02151 4656 ft 215 kts 351°
2026-04-26 08:11 55.97924 -3.02496 4384 ft 214 kts 351°
2026-04-26 08:11 55.99379 -3.02831 4114 ft 213 kts 351°
2026-04-26 08:12 56.00850 -3.03175 3852 ft 212 kts 348°
2026-04-26 08:12 56.02182 -3.04163 3658 ft 204 kts 321°
2026-04-26 08:12 56.03131 -3.05923 3594 ft 193 kts 300°
2026-04-26 08:12 56.03637 -3.08031 3517 ft 174 kts 281°
2026-04-26 08:13 56.03721 -3.10047 3365 ft 157 kts 263°
2026-04-26 08:13 56.03484 -3.11878 3207 ft 147 kts 247°
2026-04-26 08:13 56.03013 -3.13456 3026 ft 143 kts 238°
2026-04-26 08:13 56.02503 -3.14973 2851 ft 142 kts 238°
2026-04-26 08:14 56.01998 -3.16480 2656 ft 141 kts 238°
2026-04-26 08:14 56.01492 -3.17986 2490 ft 141 kts 238°
2026-04-26 08:14 56.00996 -3.19461 2282 ft 140 kts 238°
2026-04-26 08:14 56.00505 -3.20924 2106 ft 135 kts 238°
2026-04-26 08:15 56.00020 -3.22366 1902 ft 134 kts 238°
2026-04-26 08:15 55.99541 -3.23789 1727 ft 134 kts 238°
2026-04-26 08:15 55.99061 -3.25215 1510 ft 134 kts 238°
2026-04-26 08:15 55.98587 -3.26620 1342 ft 134 kts 238°
2026-04-26 08:16 55.98107 -3.28044 1164 ft 134 kts 238°
2026-04-26 08:16 55.97627 -3.29465 969 ft 134 kts 238°
2026-04-26 08:16 55.97145 -3.30887 792 ft 134 kts 238°
2026-04-26 08:16 55.96664 -3.32304 632 ft 133 kts 238°
2026-04-26 08:17 55.96183 -3.33723 432 ft 133 kts 238°
2026-04-26 08:17 55.95717 -3.35145 224 ft 132 kts 239°
2026-04-26 08:17 55.95253 -3.36502 112 ft 115 kts 238°
2026-04-26 08:17 55.94931 -3.37452 111 ft 65 kts 239°
2026-04-26 08:18 55.94765 -3.37939 114 ft 22 kts 239°
2026-04-26 08:18 55.94714 -3.38055 115 ft 10 kts 202°
2026-04-26 08:18 55.94641 -3.38002 113 ft 11 kts 148°
2026-04-26 08:18 55.94603 -3.37958 113 ft 8 kts 138°
2026-04-26 08:19 55.94600 -3.37855 114 ft 11 kts 61°
2026-04-26 08:19 55.94625 -3.37784 115 ft 4 kts 58°
2026-04-26 08:19 55.94647 -3.37721 114 ft 8 kts 59°
2026-04-26 08:19 55.94680 -3.37620 114 ft 11 kts 59°
2026-04-26 08:20 55.94728 -3.37480 115 ft 15 kts 58°
2026-04-26 08:20 55.94787 -3.37308 115 ft 14 kts 59°
2026-04-26 08:20 55.94800 -3.37268 113 ft 5 kts 59°
2026-04-26 08:20 55.94824 -3.37198 115 ft 8 kts 59°
2026-04-26 08:21 55.94860 -3.37090 112 ft 12 kts 59°
2026-04-26 08:21 55.94901 -3.36970 112 ft 13 kts 58°
2026-04-26 08:21 55.94930 -3.36856 114 ft 8 kts 92°
2026-04-26 08:21 55.94895 -3.36770 116 ft 10 kts 98°
2026-04-26 08:22 55.94913 -3.36691 112 ft 1 kts 56°
2026-04-26 08:22 55.94928 -3.36650 114 ft 7 kts 58°
2026-04-26 08:22 55.94956 -3.36560 115 ft 3 kts 79°
2026-04-26 08:22 55.94935 -3.36524 114 ft 6 kts 157°
2026-04-26 08:23 55.94904 -3.36494 114 ft 4 kts 149°
2026-04-26 08:23 55.94901 -3.36490 115 ft 0 kts 149°